[[{"header":{"parameterUnit":"m.s-1","parameterCategory":1,"la1":30.2991,"la2":30.254,"lo1":-89.0895,"lo2":-89.0444,"dy":0.0017,"dx":0.0017,"nx":28,"ny":28,"refTime":"2025-07-12T03:00:00:Z","depth":0,"parameterNumber":2,"parameterNumberName":"U-component_of_WINDS"},"data":[0,0,0,0,0,0,0,0,0,0,0,0,0,0,0,0,0,0,0,0,0,0,0,0,0,0,0,0,0,0,0,0,0,0,0,0,0,0,0,0,0,0,0,0,0,0,0,0,0,0,0,0,0,0,0,0,0,0,0.6197,0.6199,0,0.6365,0.6367,0.6369,0.6441,0.6441,0.6441,0.644,0.6616,0.6621,0.6626,0,0,0,0,0,0,0,0,0,0,0,0,0,0.594,0.5944,0.6197,0.6199,0.6201,0.6365,0.6367,0.6369,0.6441,0.6441,0.6441,0.644,0.6614,0.662,0.6626,0,0,0,0,0,0,0,0,0,0,0,0,0,0.6074,0.5946,0.6196,0.6256,0.6264,0.6364,0.6367,0.637,0.6441,0.6441,0.644,0.644,0.6613,0.662,0.6627,0.6682,0,0,0.665,0.6653,0,0,0,0,0,0,0,0,0.6067,0.6084,0.6246,0.6253,0.6261,0.6382,0.6341,0.6475,0.6441,0.6374,0.644,0.644,0.6539,0.6552,0.6585,0.669,0.6697,0.665,0.6655,0.6658,0.666,0,0,0,0,0,0,0,0.6057,0.6077,0.6263,0.6248,0.6257,0.6276,0.6294,0.6367,0.6457,0.638,0.6385,0.6404,0.6543,0.6577,0.6589,0.67,0.665,0.6657,0.6661,0.6664,0.6857,0.6858,0,0,0,0,0,0,0.6038,0.6069,0.6258,0.6268,0.616,0.6281,0.6301,0.6343,0.6456,0.6473,0.6404,0.6407,0.6565,0.6581,0.6596,0.6667,0.6658,0.6665,0.6669,0.6856,0.6857,0.6858,0,0,0,0,0,0,0.6032,0.6054,0.6251,0.617,0.6197,0.6286,0.6332,0.6347,0.6382,0.6475,0.6491,0.6423,0.6565,0.6585,0.6659,0.6674,0.6668,0.6675,0.6856,0.6857,0.6857,0.6808,0,0,0,0,0,0,0.6024,0.6051,0.6073,0.617,0.6201,0.6311,0.6333,0.635,0.6394,0.6399,0.6497,0.6513,0.6566,0.6648,0.6667,0.6684,0.6681,0.6855,0.6856,0.6857,0.6809,0.6807,0.6806,0,0,0,0,0,0.6015,0.6053,0.6073,0.6096,0.6229,0.6312,0.6329,0.639,0.6395,0.6417,0.6476,0.6509,0.6669,0.6655,0.6677,0.6696,0.6854,0.6856,0.6857,0.681,0.6808,0.6806,0,0,0,0,0,0,0.5957,0.6067,0.6091,0.6161,0.6226,0.6324,0.6354,0.6386,0.6452,0.6454,0.6527,0.6548,0.6616,0.6663,0.6646,0.6754,0.6764,0.677,0.6721,0.672,0.6718,0.6706,0.6687,0,0,0,0,0,0.5952,0.6009,0.6103,0.6156,0.6187,0.6264,0.6303,0.6343,0.6414,0.6442,0.6508,0.6576,0.6641,0.6683,0.6749,0.6816,0.6838,0.684,0.6838,0.6837,0.6841,0.688,0.6882,0.6863,0.6863,0.6863,0,0,0.5943,0.601,0.6042,0.6146,0.6201,0.6259,0.6287,0.6348,0.6392,0.6452,0.6525,0.6575,0.6656,0.6726,0.6761,0.6769,0.6851,0.6839,0.6837,0.6843,0.6882,0.6883,0.6885,0.6864,0.6864,0.6863,0,0,0.5956,0.6013,0.6063,0.6117,0.62,0.6251,0.6262,0.6355,0.639,0.6464,0.651,0.6563,0.6675,0.673,0.6773,0.6805,0.6838,0.6824,0.6817,0.6854,0.6855,0.6857,0.6868,0.6871,0.6828,0.6828,0.6828,0,0.5935,0.6024,0.6085,0.6143,0.6187,0.6242,0.6294,0.6344,0.6444,0.6473,0.648,0.6619,0.6678,0.6762,0.6769,0.6802,0.6818,0.6814,0.685,0.6852,0.6855,0.6866,0.687,0.6826,0.6826,0.6826,0.6827,0,0.5994,0.6054,0.6085,0.6178,0.6226,0.628,0.635,0.6391,0.6427,0.6477,0.6551,0.6623,0.6703,0.6726,0.6762,0.6815,0.6817,0.6835,0.6847,0.6853,0.6865,0.687,0.6823,0.6824,0.6824,0.6825,0,0,0.5977,0.6102,0.6112,0.6155,0.6249,0.6297,0.6354,0.6431,0.6464,0.6531,0.658,0.6672,0.6689,0.6737,0.678,0.6812,0.6832,0.6827,0.683,0.6826,0.6894,0.6879,0.6884,0.6854,0.6855,0.6856,0.6887,0,0.6003,0.6106,0.6162,0.6241,0.6298,0.635,0.6399,0.6462,0.651,0.6566,0.6619,0.6683,0.6701,0.673,0.6764,0.6822,0.6847,0.6821,0.6901,0.6903,0.688,0.689,0.6876,0.6902,0.6892,0.6893,0.6894,0,0.6048,0.6112,0.6196,0.6283,0.6309,0.6352,0.6426,0.6478,0.6551,0.6583,0.6636,0.6678,0.674,0.6745,0.6831,0.6812,0.6848,0.6882,0.6884,0.6895,0.6899,0.6901,0.6912,0.6915,0.6902,0.6901,0.6901,0,0.6027,0.6134,0.6199,0.6233,0.6336,0.6365,0.6409,0.6481,0.6523,0.6588,0.6616,0.6688,0.6728,0.6782,0.6843,0.6841,0.6923,0.6934,0.6952,0.695,0.6968,0.6966,0.6984,0.699,0.699,0.699,0.699,0,0.6051,0.61,0.619,0.623,0.6287,0.635,0.6405,0.6454,0.6517,0.6567,0.6617,0.6663,0.6739,0.6795,0.6842,0.6906,0.6924,0.6952,0.6964,0.6948,0.6944,0.6973,0.6973,0.6991,0.6991,0.699,0.699,0,0.6037,0.6099,0.6173,0.6263,0.6287,0.6324,0.6402,0.6443,0.6492,0.6555,0.6573,0.6651,0.6719,0.6784,0.6876,0.6908,0.6971,0.6987,0.6946,0.6953,0.6968,0.6966,0.7006,0.7015,0.7013,0.7013,0.7013,0,0.6049,0.6088,0.6181,0.6218,0.626,0.6319,0.6362,0.6426,0.6468,0.6553,0.6583,0.6654,0.6714,0.682,0.6886,0.6956,0.6974,0.6983,0.6985,0.6967,0.6974,0.6971,0.6976,0.6982,0.6982,0.6981,0.6981,0,0.6062,0.609,0.615,0.6219,0.6268,0.6327,0.6387,0.6414,0.649,0.6535,0.6604,0.6651,0.6743,0.6813,0.689,0.6936,0.6971,0.698,0.6988,0.6972,0.6947,0.696,0.6943,0.6979,0.6979,0.6979,0.6979,0.6979,0.6062,0.6098,0.6169,0.6234,0.6285,0.634,0.6382,0.6436,0.6494,0.6573,0.6608,0.6677,0.6748,0.6855,0.69,0.6956,0.6965,0.6976,0.6979,0.6981,0.6978,0.6937,0.697,0.6971,0.6971,0.6971,0.6971,0,0.6077,0.6125,0.6183,0.6265,0.6315,0.6342,0.641,0.645,0.651,0.6573,0.6631,0.671,0.6777,0.6847,0.6919,0.695,0.6968,0.6967,0.6966,0.6976,0.6966,0.6952,0.6951,0.6951,0.6951,0.6951,0.6951,0.6951,0.6092,0.6155,0.6191,0.6281,0.6329,0.6396,0.6433,0.6483,0.6533,0.6619,0.6675,0.6719,0.6785,0.6861,0.6925,0.6944,0.6968,0.6962,0.6985,0.6975,0.6977,0.6978,0.6965,0.6967,0.6967,0.6991,0.6991,0.6991]},{"header":{"parameterUnit":"m.s-1","parameterCategory":1,"la1":30.2991,"la2":30.254,"lo1":-89.0895,"lo2":-89.0444,"dy":0.0017,"dx":0.0017,"nx":28,"ny":28,"refTime":"2025-07-12T03:00:00:Z","depth":0,"parameterNumber":3,"parameterNumberName":"V-component_of_WINDS"},"data":[0,0,0,0,0,0,0,0,0,0,0,0,0,0,0,0,0,0,0,0,0,0,0,0,0,0,0,0,0,0,0,0,0,0,0,0,0,0,0,0,0,0,0,0,0,0,0,0,0,0,0,0,0,0,0,0,0,0,3.6196,3.6195,0,3.6152,3.6151,3.6151,3.6153,3.6153,3.6154,3.6154,3.6103,3.6101,3.6099,0,0,0,0,0,0,0,0,0,0,0,0,0,3.6274,3.6272,3.6196,3.6195,3.6195,3.6152,3.6151,3.6151,3.6152,3.6153,3.6154,3.6155,3.6104,3.6101,3.6099,0,0,0,0,0,0,0,0,0,0,0,0,0,3.6236,3.6272,3.6196,3.6191,3.619,3.6152,3.6151,3.6151,3.6152,3.6153,3.6154,3.6155,3.6104,3.6101,3.6099,3.6062,0,0,3.609,3.6088,0,0,0,0,0,0,0,0,3.6238,3.6233,3.6192,3.6191,3.619,3.6159,3.616,3.612,3.6152,3.6166,3.6154,3.6155,3.612,3.6116,3.6106,3.6059,3.6057,3.6089,3.6088,3.6086,3.6085,0,0,0,0,0,0,0,3.6241,3.6235,3.6178,3.6191,3.619,3.6188,3.6184,3.6153,3.6138,3.6165,3.6165,3.616,3.612,3.6108,3.6104,3.6056,3.6089,3.6087,3.6085,3.6084,3.5974,3.5973,0,0,0,0,0,0,3.6245,3.6237,3.618,3.6177,3.6217,3.6186,3.6181,3.6168,3.6139,3.6135,3.6159,3.616,3.6113,3.6108,3.6103,3.6055,3.6086,3.6084,3.6082,3.5975,3.5973,3.5972,0,0,0,0,0,0,3.6247,3.624,3.6181,3.6207,3.6199,3.6184,3.6168,3.6166,3.6155,3.6135,3.6131,3.6151,3.6114,3.6107,3.6071,3.6053,3.6082,3.608,3.5976,3.5974,3.5973,3.5961,0,0,0,0,0,0,3.6249,3.6241,3.6228,3.6207,3.6198,3.6153,3.6168,3.6165,3.6151,3.6152,3.6126,3.6122,3.6114,3.6076,3.6069,3.605,3.6077,3.5978,3.5975,3.5973,3.5963,3.596,3.5956,0,0,0,0,0,3.6252,3.6226,3.6228,3.6221,3.6183,3.6152,3.6147,3.614,3.6149,3.6135,3.6122,3.6123,3.6057,3.6072,3.6064,3.6044,3.5979,3.5976,3.5974,3.5965,3.596,3.5956,0,0,0,0,0,0,3.6244,3.6223,3.6225,3.6192,3.6174,3.6153,3.6135,3.6136,3.6113,3.6115,3.6105,3.6099,3.6063,3.605,3.6068,3.6005,3.6019,3.6014,3.6015,3.601,3.6007,3.601,3.6075,0,0,0,0,0,3.6239,3.6219,3.62,3.6173,3.6164,3.6151,3.6138,3.6134,3.6114,3.6106,3.609,3.6069,3.6043,3.6026,3.6002,3.5962,3.5954,3.5944,3.594,3.5938,3.5933,3.5908,3.5903,3.5964,3.5964,3.5964,0,0,3.6227,3.6213,3.6201,3.6171,3.6157,3.6133,3.6145,3.612,3.6101,3.6101,3.6067,3.6055,3.603,3.5992,3.5974,3.598,3.5915,3.5934,3.5932,3.5929,3.5905,3.5899,3.5894,3.5962,3.5962,3.5962,0,0,3.6193,3.6182,3.6157,3.6142,3.6121,3.6113,3.6107,3.6085,3.6077,3.6043,3.6042,3.6019,3.5976,3.5958,3.5943,3.5901,3.59,3.5893,3.5874,3.5849,3.5845,3.584,3.5823,3.5817,3.5889,3.5889,3.5889,0,3.6181,3.6148,3.6143,3.6118,3.6103,3.6104,3.6077,3.6062,3.6033,3.6022,3.603,3.5975,3.5958,3.5915,3.5904,3.5893,3.5883,3.5895,3.5846,3.5842,3.5837,3.582,3.5814,3.5888,3.5888,3.5888,3.5888,0,3.6132,3.6109,3.609,3.6064,3.6048,3.6021,3.601,3.5994,3.5991,3.598,3.5944,3.5925,3.5895,3.5885,3.5881,3.5839,3.5843,3.5849,3.5862,3.5831,3.5815,3.5808,3.5887,3.5887,3.5887,3.5887,0,0,3.6092,3.6063,3.6056,3.6043,3.602,3.6,3.5973,3.5946,3.593,3.591,3.5885,3.5847,3.5852,3.5835,3.5829,3.5808,3.5773,3.5816,3.5815,3.5806,3.5722,3.5717,3.571,3.5773,3.5772,3.5771,3.5723,0,3.6054,3.6008,3.6002,3.5959,3.5936,3.5936,3.5912,3.5893,3.5882,3.5859,3.5846,3.5819,3.5828,3.5818,3.5797,3.5782,3.5755,3.5785,3.5746,3.5744,3.575,3.5702,3.5696,3.5653,3.5717,3.5716,3.5716,0,3.6004,3.5983,3.5939,3.5917,3.5907,3.5885,3.5859,3.5838,3.5815,3.5808,3.5789,3.5786,3.5754,3.5769,3.5724,3.5744,3.5727,3.5717,3.5715,3.5709,3.5727,3.5692,3.5639,3.5632,3.5706,3.5707,3.5707,0,3.5976,3.5937,3.5905,3.5895,3.5869,3.5853,3.5841,3.582,3.5803,3.5779,3.5768,3.574,3.5724,3.5701,3.5688,3.5701,3.5642,3.5658,3.5633,3.5633,3.5619,3.562,3.556,3.5612,3.5612,3.5613,3.5613,0,3.5933,3.5905,3.5892,3.5872,3.584,3.5833,3.5801,3.5789,3.577,3.5745,3.5743,3.5719,3.5706,3.5679,3.5669,3.5631,3.5624,3.5616,3.5613,3.5615,3.5615,3.5602,3.5604,3.5611,3.5611,3.5612,3.5612,0,3.5896,3.5887,3.5852,3.583,3.5824,3.5801,3.5781,3.576,3.575,3.5718,3.571,3.5693,3.5661,3.5647,3.5608,3.5601,3.5557,3.5557,3.5565,3.5563,3.5539,3.5541,3.5467,3.5456,3.5517,3.5517,3.5516,0,3.5869,3.5847,3.5824,3.5808,3.5796,3.5771,3.5755,3.5746,3.5728,3.57,3.5681,3.5651,3.5625,3.5574,3.5556,3.5525,3.5523,3.55,3.5518,3.552,3.552,3.552,3.5517,3.5496,3.5495,3.5495,3.5494,0,3.582,3.5816,3.5794,3.5768,3.5749,3.5728,3.5708,3.5695,3.5682,3.5661,3.563,3.5611,3.5571,3.5539,3.5507,3.5491,3.5489,3.5489,3.5481,3.5481,3.5486,3.5481,3.5553,3.549,3.549,3.5491,3.5491,3.5491,3.5785,3.5765,3.5746,3.5719,3.5704,3.5684,3.5663,3.565,3.5625,3.5593,3.5589,3.5555,3.553,3.5487,3.547,3.5441,3.5446,3.5436,3.5433,3.543,3.5427,3.5492,3.5435,3.5436,3.5436,3.5436,3.5436,0,3.5734,3.5721,3.5698,3.567,3.5649,3.5652,3.5629,3.561,3.558,3.5559,3.5534,3.5497,3.5465,3.5445,3.5412,3.5392,3.539,3.5384,3.5384,3.538,3.5425,3.5434,3.5386,3.5386,3.5386,3.5386,3.5386,3.5386,3.5705,3.5671,3.5665,3.5622,3.5609,3.5577,3.5563,3.5544,3.5527,3.5486,3.5461,3.5448,3.5426,3.5391,3.5361,3.5356,3.5342,3.5335,3.5329,3.5372,3.5377,3.5382,3.539,3.5333,3.5333,3.5286,3.5285,3.5285]}]]